Location: Arthez
(43.0833°N, 0.2500°W)
Time: 22:09:31
(UTC+00:00)

deb Kosmos-970 - Pass Details

Date: 19 August 2022
Orbit: 900 x 1112 km, 65.8° (Epoch: 28 September)

Event Time Altitude Azimuth Distance (km) Brightness Sun altitude
Rises 23:25:51 0° 328° (NNW) 3,942 ? -33.7°
Reaches altitude 10° 23:28:37 10° 332° (NNW) 2,972 ? -33.8°
Enters shadow 23:35:18 62° 39° (NE) 1,208 ? -34.0°
